482  
ASUS43 KIWX 291110  
RWRIWX  
 
KIWX WEATHER ROUNDUP  
NATIONAL WEATHER SERVICE NORTHERN INDIANA  
700 AM EDT MON MAY 29 2017  
 
NOTE: "FAIR" INDICATES FEW OR NO CLOUDS BELOW 12,000 FEET WITH NO  
SIGNIFICANT WEATHER AND/OR S TO VISIBILITY
.  
 
* THESE STATIONS ARE NOT UNDER NWS QUALITY CONTROL. THEY ALSO MAY NOT  
REPORT WEATHER SUCH AS PRECIPITATION OR FOG.
 
 
INZ001>027-291200-  
NORTHERN INDIANA  
 
CITY SKY/WX TMP DP RH WIND PRES REMARKS
 
GARY* PTCLDY 59 50 72 SW7 29.80R  
VALPARAISO CLEAR 59 53 80 SW7 29.82R  
MICHIGAN CITY* CLEAR 57 52 82 S5 29.80R  
LAPORTE* CLEAR 58 52 81 SW5 29.82R  
KNOX* CLEAR 55 45 67 SW7 29.81R  
SOUTH BEND MOCLDY 57 53 86 CALM 29.80S  
ELKHART* PTCLDY 57 52 82 CALM 29.80  
GOSHEN CLOUDY 58 52 80 SW5 29.81R  
MONTICELLO* CLEAR 57 54 88 SW6 29.84R  
LOGANSPORT* PTCLDY 59 54 82 SW8 29.85R  
ROCHESTER* CLOUDY 61 55 82 S6 29.83R  
WARSAW* CLOUDY 57 54 88 CALM 29.83R  
ANGOLA* CLOUDY 57 46 67 CALM 29.82R  
FORT WAYNE PTCLDY 56 54 93 SW6 29.84R  
HUNTINGTON* PTCLDY 57 56 96 S3 29.84R  
PERU/GRISSOM CLEAR 58 56 95 SW8 29.84R  
MARION* CLOUDY 57 54 88 S8 29.88R  
 

 
INZ028>050-291200-  
CENTRAL INDIANA  
 
CITY SKY/WX TMP DP RH WIND PRES REMARKS
 
LAFAYETTE PTCLDY 56 55 97 CALM 29.85R  
KOKOMO* MOCLDY 60 54 80 SW8 29.86R  
MUNCIE* CLEAR 62 57 83 SW7 29.88R  
INDIANAPOLIS MOCLDY 58 56 93 SW7 29.90R  
 

 
MIZ043>046-050>051-056>058-064>065-071>073-077>080-291200-  
SOUTHWEST LOWER MICHIGAN  
 
CITY SKY/WX TMP DP RH WIND PRES REMARKS
 
BATTLE CREEK CLEAR 55 52 89 SW7 29.79R  
BENTON HARBOR CLEAR 52 49 89 E3 29.78R  
COLDWATER* MOCLDY 57 55 90 CALM 29.81R  
HILLSDALE* CLEAR 55 50 82 W5 29.81R  
HOLLAND CLEAR 53 48 83 S6 29.76S  
GRAND RAPIDS PTCLDY 56 50 80 S5 29.76R  
KALAMAZOO CLEAR 56 49 77 SW6 29.80R  
STURGIS* CLOUDY 56 54 94 CALM 29.81R  
THREE RIVERS* CLOUDY 56 55 96 SW5 29.81R  
 

 
OHZ001>008-015>018-024>025-291200-  
NORTHWEST OHIO  
 
CITY SKY/WX TMP DP RH WIND PRES REMARKS
 
WAUSEON* FAIR 57 57 100 W7 29.82R  
DEFIANCE CLEAR 55 55 100 SW5 29.83R FOG  
FINDLAY CLEAR 61 57 87 SW6 29.83R  
TOLEDO EXPRESS CLEAR 57 57 100 SW6 29.81R  
TOLEDO METCALF CLEAR 59 58 96 SW8 29.82R  
LIMA CLEAR 60 58 92 SW9 29.86R  
 

 
AND FOR LAKE MICHIGAN COASTAL AND OPEN LAKE BUOY OBSERVATIONS  
 
STATION/POSITION TEMP WIND PRES VSBY WAVE
 
AIR SEA DIR/SP/G HT/PER  
(F) (DEG/KT/KT) (MB) (MI) (FT/S)  
CALUMET HARBOR 62 220/ 4/ 6 1008.3R  
MICHIGAN CITY 62 200/ 11/ 11 N/A  
BURNS HARBOR 63 220/ 9/ 14 1009.5R  
SOUTH LAKE BUOY 52 47 240/ 10/ 10 1007.2 0  
4 MI NW BRIDGMAN 61 59 220/ 8/ 10 1008.6 1  
MICHIGAN CITY 61 56 220/ 10/ 12 N/A 1  
 

 

 
 
 
CLICK HERE TO GO TO PREVIOUS BULLETINS.

The Nexlab IN Page
The Nexlab OH Page
The Nexlab MI Page Main Text Page